1487321563.1803279, 0.24673138025495028, 0.030469999151792826, 0.88630600849658714, -0.72085992404313104, 0.64766235562653207, 0.21160814180729173, 0.12695053104925541
1487321563.2135003, 0.25894457857280495, 0.029792515043432999, 0.88756969627478743, -0.719470983666328, 0.6483015201676271, 0.21682399608805597, 0.1226947322869114
1487321563.2469444, 0.26052500939427625, 0.024117894062019973, 0.88693269988248291, -0.71774429347985602, 0.64891553835108851, 0.21959346358463999, 0.12462128234984775
1487321563.2802196, 0.26506070580778035, 0.031087193540149733, 0.88676563026050192, -0.71764154181530926, 0.65005898164808118, 0.21901777678149417, 0.12018798314847064
1487321563.3136399, 0.26119603566811755, 0.044208678275710241, 0.88882216246669998, -0.71830745099882953, 0.65213605599511548, 0.2127415180993627, 0.11616374988557389
1487321563.3471286, 0.27305596630297524, 0.042519473915297305, 0.88767469078600314, -0.71648667935890442, 0.65295537535392179, 0.2182665647616889, 0.11249810133864979
1487321563.3803484, 0.26577454068765222, 0.030410081941767982, 0.8862131301966405, -0.71459706663406108, 0.65306863531584258, 0.22003717879047108, 0.12015003068925416
1487321563.4138603, 0.26538052965850234, 0.02767740467440297, 0.88661455818424395, -0.71276453944163165, 0.65446591011803812, 0.22126156663504956, 0.12117921826010521
1487321563.4471247, 0.25560376737531121, 0.041210071130222861, 0.88915402632280227, -0.71312096142653136, 0.65732138345363855, 0.21237148496174654, 0.11952173695122115
1487321563.4805095, 0.2597966432297959, 0.011002700549905636, 0.87930487340198171, -0.70732267912612556, 0.65726572804046446, 0.22551034779102841, 0.12977470237472166
1487321563.5138497, 0.23549152014007144, 0.022602427034033333, 0.88368781136980779, -0.70843139650897913, 0.65974254229268614, 0.21195501841882119, 0.13393955538450147
1487321563.5472605, 0.23888837940559149, 0.027598760941493217, 0.88281934684240926, -0.70621867333489807, 0.66291442073191831, 0.21146550647934304, 0.13069810935203588
1487321563.5807543, 0.25716790737708456, 0.022278723616222795, 0.88137671263440587, -0.70204477952810185, 0.66518681211583974, 0.22082889865478778, 0.12607232068705149
1487321563.6140535, 0.25099323721525801, 0.015044184873138938, 0.8795771893759875, -0.69975223519095375, 0.66630341671964399, 0.22194857568318843, 0.13086403617952747
1487321563.6474361, 0.2615925433961388, 0.016068305626647961, 0.87989478362252482, -0.6973464737746371, 0.6682894366757316, 0.22594813313931708, 0.12666714440836763
1487321563.6808393, 0.24497846254678718, 0.033973355537887114, 0.88199237220819227, -0.69921058407372561, 0.67072905142002037, 0.21285175005600188, 0.12617936122273124
1487321563.7142963, 0.23818760410639664, 0.016964751137679313, 0.87964473132533516, -0.69683638720271535, 0.66994992661328723, 0.21734783161052176, 0.13544764817198762
1487321563.7475491, 0.25470677940064007, 0.029163951643018438, 0.87994898415290124, -0.69615288199699243, 0.67202021845124282, 0.2198146519891391, 0.12426387106041352
1487321563.7809205, 0.24896937624843635, 0.034661307565206752, 0.87919296038414363, -0.69592773505685479, 0.67340630207443064, 0.21603865126543212, 0.12464285404502667
1487321563.8144374, 0.25171777750149565, 0.031592878980265429, 0.87697877853191231, -0.69422194087535605, 0.67417717781122954, 0.21883218685742126, 0.12511396293355209
1487321563.8476086, 0.23826469766154007, 0.02011226679792983, 0.87428895213509605, -0.69453673887919098, 0.67195247995258589, 0.21905280501083121, 0.13458993888666099
1487321563.8813014, 0.24768504918050863, 0.016374971710435775, 0.87099127989677072, -0.69226164987739569, 0.67266495514081104, 0.22505582046632935, 0.13283653077622842
1487321563.914674, 0.24271925374599904, 0.028344726220782344, 0.87146262486376425, -0.69293010284032186, 0.67431495325792179, 0.21946597526134057, 0.13031462731810514
1487321563.9479322, 0.24922449045464259, 0.024356500801803266, 0.8698253089436313, -0.69106975072532506, 0.67467997948406977, 0.22470408662891753, 0.12937387049971019
1487321563.981158, 0.2641849101109337, 0.030407643226725727, 0.87007396386788027, -0.68904600592740584, 0.67691870214483307, 0.22857236663794328, 0.12145511768375092
1487321564.0144444, 0.24666054086779093, 0.016834341733669392, 0.86672511894803816, -0.68879947503549388, 0.67520446596512351, 0.22762611724249465, 0.13356857070690867
1487321564.0479987, 0.25515541292108107, 0.03720187028674185, 0.8704986424956882, -0.68818051208730502, 0.67936438002838351, 0.22356584763492907, 0.12202431603242157
1487321564.0814776, 0.25029230860081431, 0.009541165475599217, 0.86320662317329022, -0.68447196759347884, 0.67759971818925613, 0.232920514165561, 0.13455400985999313
1487321564.114655, 0.24556220806664769, 0.02053534021158944, 0.86773497664999244, -0.685417236485929, 0.6791881490261128, 0.22700334875018527, 0.13181862465781055
1487321564.1480846, 0.22555982063085037, 0.032344046014312428, 0.87054563283794617, -0.68680802601887658, 0.68103087540462082, 0.21553514334167834, 0.13429923352853598
1487321564.1815572, 0.23455198716505735, 0.014853151382813318, 0.86708979147611254, -0.68300075416531869, 0.68076171758097959, 0.22639759869805801, 0.13717718829876022
1487321564.2149951, 0.25268817391895143, 0.036259396646055042, 0.87049248344324237, -0.68141931526008304, 0.68556189355826314, 0.22563733661697644, 0.1214923833649072
1487321564.2481029, 0.22948545635054157, 0.010403000037814136, 0.86567501172892258, -0.67981403946606422, 0.68300558136987011, 0.22742938087326045, 0.14011468259266766
1487321564.2814882, 0.22843542291407795, 0.031669076549698368, 0.86893012521123703, -0.6804887176426595, 0.68660932218539961, 0.21962000866147618, 0.13141459448892348
1487321564.3148422, 0.2396609352427862, 0.040436382498311302, 0.87026135233665269, -0.67845340322236403, 0.68970589363292589, 0.22097218605881139, 0.12319924079469581
1487321564.3483386, 0.20701939198723429, 0.021310445116761646, 0.86621401272806187, -0.67790674678209417, 0.68783064326531473, 0.21650289727987412, 0.14303127043399044
1487321564.3816795, 0.21547149787576636, 0.018524812216606529, 0.86584716984023613, -0.6747753909541121, 0.68984253413585961, 0.2219340756216113, 0.13978811085969123
1487321564.4150093, 0.20863177087075155, 0.026964840260202974, 0.86838266932590025, -0.67411449586398453, 0.69236849475370876, 0.21675709912601127, 0.13860690429053724
1487321564.4483581, 0.21558246298243089, 0.016402994867157572, 0.86569446700710817, -0.67109243781387473, 0.69275248601404171, 0.22450757245904712, 0.13901540540149268
1487321564.481797, 0.19629786823922335, 0.034112670526953964, 0.86830878262452416, -0.671771476557394, 0.69624986119674681, 0.21125052152119503, 0.13904111343207876
1487321564.5151372, 0.20795932000802295, 0.014982682681659972, 0.86580949400039398, -0.66689066268608777, 0.69651305110737749, 0.22412555321478664, 0.14104662369361554
1487321564.5485575, 0.19236932760441466, 0.028182843537418567, 0.870339503075792, -0.66650625811029773, 0.70002972211243075, 0.21390639931921446, 0.14132179021400412
1487321564.5820951, 0.18243492011184279, 0.0027187414953017686, 0.86296235687372991, -0.6642055703860924, 0.6971174555667865, 0.22148985210276756, 0.15427397326726669
1487321564.6155021, 0.19855479989693459, 0.013100103268549657, 0.86533290037053157, -0.66090234511764989, 0.70172377684049458, 0.22434088220199502, 0.1430489420007475
1487321564.6487257, 0.18497978544660448, 0.01380726818975142, 0.86701750238200681, -0.65966459964292168, 0.70335373967801795, 0.21991794048433871, 0.14755416738275412
1487321564.6821215, 0.20500814696017852, 0.012567180678677792, 0.86763899437461534, -0.6557004626011852, 0.70595812130975832, 0.2289405201282971, 0.13880299904819537
1487321564.7155154, 0.18826687445714188, 0.016621641467552989, 0.86658005562833851, -0.65449307736856743, 0.70840513391945836, 0.22168808931554987, 0.14371975844955287
1487321564.7489073, 0.19080029073868521, 0.024249358057613191, 0.86865890988291672, -0.65351664286197286, 0.71056583122506578, 0.22066818870743735, 0.13898829983285227
1487321564.7823019, 0.1893622816686687, 0.0022653733058161968, 0.8613658465101619, -0.64963550791197167, 0.70956102341011085, 0.22976453879824701, 0.14732656796375673
1487321564.8156598, 0.19552588171994106, 0.010357151666473219, 0.86668859244545793, -0.64851005824296004, 0.71202371591487501, 0.22939430540525532, 0.14083744168411441
1487321564.8490112, 0.17176779729408748, 0.019311750973609383, 0.86951225629086282, -0.64915223302984992, 0.71392230999927386, 0.21789060383570694, 0.14642403627059
1487321564.8824487, 0.16288016267125455, 0.028271199333805178, 0.86846080782393864, -0.64933922732255878, 0.71557904117028304, 0.21185079795735171, 0.14637090934606553
1487321564.9158611, 0.16339463066742899, 0.028418389030861805, 0.86860364783335575, -0.64727190353328989, 0.7173629340766513, 0.21275653753490803, 0.14547906875384839
1487321564.9492311, 0.16913229597744689, 0.017918313750083958, 0.86730479382255565, -0.64459519788043396, 0.71749907509254884, 0.21957580451770314, 0.14655570333912155
1487321564.9824903, 0.15504211913591587, 0.024906802306719357, 0.86750801835076741, -0.64429065776700367, 0.71932457154391471, 0.21269439175499394, 0.14907315252351261
1487321565.0161302, 0.15509353635841791, 0.021534896039358542, 0.865237560842122, -0.64224267036005822, 0.72041535385699207, 0.21465323908355383, 0.14983343167272545
1487321565.0494895, 0.1516518593270984, 0.023474792184649922, 0.86722760899381801, -0.64123793544325103, 0.72167429808424333, 0.21334110331606579, 0.14995229664455198
1487321565.0827196, 0.16104768613917053, 0.013673578474528403, 0.86516433947387461, -0.63703499135951236, 0.72303532726480702, 0.22186848707009171, 0.14893189636840007
1487321565.1160007, 0.15129366853712559, 0.023336588914273704, 0.86717434304561092, -0.63675777824490165, 0.72528739987846225, 0.21510843173035302, 0.14908414409542092
1487321565.1495168, 0.1492598491972093, 0.024581817421054475, 0.86705506045906267, -0.63560377256708067, 0.72655982881305936, 0.21428913698275256, 0.14899270191797875
1487321565.1826963, 0.14075582275347609, 0.019110299811903757, 0.86601318929041338, -0.63462691527788428, 0.72631116658885042, 0.21464776617147191, 0.15377614955127866
1487321565.2163367, 0.15406185088559904, 0.0087965318515877133, 0.86385426151157596, -0.63057814360654529, 0.72744752939922275, 0.22420101671521828, 0.15141070266184109
1487321565.2495055, 0.1358738794795622, 0.026136769238748969, 0.8662684000055173, -0.63276553355444765, 0.72933022101422518, 0.21068047945854249, 0.15263991560537288
1487321565.2828727, 0.14781848961511526, 0.010626402864056413, 0.86342301221314055, -0.6288691848442145, 0.7292516755650692, 0.22205886105480457, 0.15298824878387007
1487321565.3162563, 0.14170941471871881, 0.020293671580448321, 0.86589660128612844, -0.62984599686356002, 0.73042781773514409, 0.21637793520376891, 0.15149195513484118
1487321565.3496513, 0.12996147040823541, 0.02318884689535286, 0.86664331495274949, -0.6303602466176137, 0.73073182935442538, 0.21095372221149558, 0.15548466206552736
1487321565.3830304, 0.14326698449259184, 0.016544574883038808, 0.86535892622491561, -0.62917795839326218, 0.73019283111143563, 0.21870923222919708, 0.15205195757788884
1487321565.4163868, 0.12765447888717055, 0.028143073357582205, 0.86487940132476582, -0.63205584306349483, 0.73019637975613227, 0.20851722789251004, 0.15439955930104213
1487321565.449718, 0.12885070843510907, 0.029464438927286507, 0.86591756533809938, -0.63265956530527767, 0.72986135670815888, 0.20862855380796966, 0.15335710269778061
1487321565.4830952, 0.12971845683534503, 0.031043337629824197, 0.86583058771536436, -0.63406858759092866, 0.7288886657662822, 0.20818638997827787, 0.15276375936624004
1487321565.516727, 0.15572912875400532, 0.016297533064519476, 0.86767919303578467, -0.63293987350672776, 0.7264502094287687, 0.22373362537195499, 0.14697099926212401
1487321565.5499456, 0.14679394378018995, 0.01421874943517263, 0.86360997647806248, -0.63545410656011592, 0.72388145077158061, 0.22147345011525632, 0.15212900636881055
1487321565.5835128, 0.13659255438654333, 0.028755553332272588, 0.86626643279174975, -0.64076740099290252, 0.72224514043533772, 0.21189409457804814, 0.15126132230444589
1487321565.6167448, 0.14937629542251996, 0.022572111742362254, 0.86748122432030939, -0.64200951019887509, 0.71957139241338697, 0.21898476524187607, 0.14861518302791435
1487321565.6500773, 0.15029648731228218, 0.0071254727768287861, 0.86011123686980639, -0.64378226702643171, 0.71471819464754327, 0.22565332933108634, 0.15428178720724214
1487321565.6834092, 0.13050168175804949, 0.026472043191228922, 0.86530193881242212, -0.65029879925729572, 0.71319810739184475, 0.2104440898435446, 0.15547738210792073
1487321565.7167575, 0.14735235493357673, 0.021741506688382792, 0.86567748706459902, -0.65177947765549371, 0.7103716425357709, 0.2189455600211393, 0.15039442720790014
1487321565.7501888, 0.15181559988587712, 0.023542037261190935, 0.86630784564367258, -0.65490136508172159, 0.70770991057431021, 0.21986996675811593, 0.14801379059663503
1487321565.7835979, 0.15936802861073829, 0.027533066030965725, 0.86607751454814152, -0.65747146195694206, 0.70582451431806792, 0.22082872122557895, 0.14414474524498155
1487321565.81704, 0.14922124020660338, 0.028143278217309442, 0.86472424825216221, -0.66170583820036843, 0.70229923930260729, 0.21680682633211282, 0.1480404073971831
1487321565.8503635, 0.15825896867068132, 0.026258802631252777, 0.86660286537161502, -0.66326066761532843, 0.70004501572140332, 0.22107251346790727, 0.14542766774954188
1487321565.8836269, 0.15652151684427093, 0.025494174426738278, 0.8652425979272037, -0.66673070635601928, 0.696586873889534, 0.2208196926112079, 0.14654540484744577
1487321565.9170156, 0.15373667703409577, 0.024329465783347812, 0.86515487428077487, -0.66944579240269586, 0.69381884266425642, 0.22013820178282045, 0.14831357562335493
1487321565.9504199, 0.17072703846521503, 0.018651279020864941, 0.86407437201039905, -0.6693295050242859, 0.69206794858694154, 0.22863092656925485, 0.14411060911220602
1487321565.9837565, 0.17074482718056372, 0.031888751423466755, 0.86778832729077637, -0.67214067892809726, 0.69196413764842768, 0.22368106433661081, 0.13920963111719409
1487321566.0171657, 0.16263109721164784, 0.028869949707934314, 0.86546324463327895, -0.67509381986742956, 0.68873137025750131, 0.22184891581922753, 0.14380713664439787
1487321566.0505579, 0.15599060756896155, 0.023350050545374867, 0.86152289504926971, -0.67757630906144939, 0.6854134087102467, 0.22138465034633137, 0.14861911434905081
1487321566.0839844, 0.17605605455869583, 0.034444573759315707, 0.86749657494560128, -0.67851715646192801, 0.68585365290423173, 0.22498863447388218, 0.13637943225545088
1487321566.117265, 0.1634255329185447, 0.04241809938275734, 0.86774224088266172, -0.68118375929953523, 0.68539478627757788, 0.21675458644217727, 0.13870876780631697
1487321566.1508565, 0.18010775771295967, 0.019776669126537694, 0.86469914547131055, -0.67997597885145522, 0.68118504070763608, 0.23195409592521399, 0.14077253242255094
1487321566.1841192, 0.17393071312204147, 0.033193462783176295, 0.86650856900257989, -0.68198621079665711, 0.68219886162370347, 0.22445443328122777, 0.13827410770980819
1487321566.2176216, 0.17817388321964323, 0.041250339814891901, 0.86628677721774072, -0.68349383433483779, 0.68220135275936455, 0.22284532280412556, 0.13333212225071453
1487321566.2509966, 0.16805970317517344, 0.030532580119084479, 0.86538595037158417, -0.68456441282841884, 0.67933813631509521, 0.22330691622568233, 0.14144003111775519
1487321566.2842898, 0.16200797866182853, 0.018482621939360178, 0.86210311766760239, -0.68459148170476702, 0.67699620580913877, 0.22566982935671182, 0.14860608539159487
1487321566.3175895, 0.16035624957350858, 0.028274166695096192, 0.86421765766323555, -0.68602048881708866, 0.67772755516476224, 0.22107878320851096, 0.14555212643105228
1487321566.3511012, 0.17328736854353857, 0.020576663800124601, 0.86339084033002023, -0.68522288832529921, 0.67622829127848127, 0.22931783302878839, 0.14352080979670026
1487321566.3843412, 0.18477828356242493, 0.012167019629033632, 0.8616222665064196, -0.68331823470303377, 0.67569782001929402, 0.237140764230442, 0.14238294871123239
1487321566.4181457, 0.16496790249348503, 0.029152851461817571, 0.86326790354113325, -0.68894590811398171, 0.6746510567890982, 0.22269637107435022, 0.14354725206937741
1487321566.4513204, 0.16220089852550224, 0.027985748135033517, 0.86172966350373037, -0.69023821194252277, 0.67315098992368771, 0.22213038990173051, 0.14524822002783219
1487321566.4845915, 0.16758820954740655, 0.027690137242846691, 0.8638151150676221, -0.69179671335999804, 0.67120020978536221, 0.22447497055460811, 0.14324305694482559
1487321566.5178297, 0.18815879175851813, 0.019217902762490746, 0.86168583456645775, -0.6899733661948515, 0.67005848786905042, 0.2358259752832513, 0.13908445692488505
1487321566.5511694, 0.17492159054617254, 0.033846001398616155, 0.86399808982954052, -0.69603007069564538, 0.66758403227216667, 0.22499838481907455, 0.13874230562974429
1487321566.5847642, 0.17799717732042852, 0.035172552246831613, 0.8652961367945432, -0.69827837829261707, 0.66528147292462614, 0.22584133982188048, 0.13712606396936586
1487321566.6179044, 0.17008721036395255, 0.031526118400548704, 0.86262100423005605, -0.7024018507824844, 0.66053472680168479, 0.22408568647464241, 0.1418136799591366
1487321566.6516135, 0.18115342895998016, 0.022373984903538924, 0.86060350611408376, -0.70314673790022919, 0.65712835364090416, 0.23180223575249648, 0.14154404021930841
1487321566.6849475, 0.19590256282684659, 0.01828880101701702, 0.86184939268226135, -0.7041583703281834, 0.65417533189542643, 0.23920368377087456, 0.13783041140005742
1487321566.7182343, 0.18876353120208988, 0.017408079423691214, 0.86007904165475302, -0.70636364351252212, 0.65188372654725102, 0.2368061745329636, 0.14149503839233027
1487321566.7515514, 0.17896482307416084, 0.03584085719153994, 0.86315988291598478, -0.71280513353538333, 0.64942753360016436, 0.22624272571611706, 0.13772054773400252
1487321566.7848997, 0.18941388534836481, 0.025689759066403563, 0.86127742568535037, -0.71254494441856164, 0.64671686548175911, 0.23429148926179061, 0.13836363736361301
1487321566.8182523, 0.19112759931072243, 0.021136536889352436, 0.86024371699831415, -0.71432722777505908, 0.6435063359913924, 0.23672523976478727, 0.1399905998859782
1487321566.8515849, 0.1955178665296762, 0.026479317067843178, 0.85958893087843447, -0.71665816597966259, 0.64157338992220558, 0.23692285561752249, 0.13657312680185099
1487321566.8850017, 0.18668352376623901, 0.039589546157701223, 0.86194350414466947, -0.72172714673311245, 0.63923191613278652, 0.22884444208546717, 0.13462059423534634
1487321566.9184725, 0.19030142867731201, 0.025209534902613684, 0.85563167228799963, -0.72201188690053464, 0.63508279548973567, 0.23624534061579727, 0.13984569026108035
1487321566.9517403, 0.18840045890296181, 0.036814167496010047, 0.85875975513579039, -0.72428451934282578, 0.63499169114879905, 0.23158890771515592, 0.13625000930503103
1487321566.9850461, 0.1939180175506558, 0.025501606590271619, 0.85521867369123905, -0.72465383629270952, 0.63123643749792491, 0.23897240590994881, 0.13895886706071603
1487321567.0184336, 0.19499341544302784, 0.024423153032714529, 0.85304522648644321, -0.72637013692511421, 0.62862352839650992, 0.24031928233295657, 0.13951891007560824
1487321567.051904, 0.20300843066830737, 0.021941120907084888, 0.85085152192353097, -0.72705702128718075, 0.62603857505588756, 0.24565124855371392, 0.13827239212151948
1487321567.0853686, 0.185126622121908, 0.018711461351194475, 0.84977212495154753, -0.72884570466245546, 0.62414931524275774, 0.24049881718600585, 0.14622547660793375
1487321567.1187806, 0.19396079714332259, 0.02189059206922267, 0.85120640941527848, -0.72926298297484726, 0.62347302142113026, 0.24347086233409276, 0.14205221721933006
1487321567.1521125, 0.1854628305599608, 0.030196536415718289, 0.84923207596505568, -0.73333981063578502, 0.62108950015144293, 0.23729222781705725, 0.14196109874159055
1487321567.1852853, 0.18776595171662197, 0.031587632357826967, 0.84772959279786464, -0.73431014337572331, 0.61958561759398212, 0.23891195749264857, 0.14079542738753786
1487321567.2186255, 0.19042700415376909, 0.030631185679667383, 0.84706924905205738, -0.735810381397347, 0.6169814202351962, 0.24141077578364414, 0.14013510284004571
1487321567.2521033, 0.1842408500654617, 0.03336653036767917, 0.84566952273629159, -0.73768774545209226, 0.61553078448917009, 0.23844558720470541, 0.14171219248377731
1487321567.285394, 0.20790407765609875, 0.041628994393579151, 0.84782916616909276, -0.73634991761972912, 0.61647350719016203, 0.24683595484579055, 0.12969666591491849
1487321567.3188536, 0.19039605147790953, 0.019002318506477531, 0.84051639930650701, -0.73822850699483589, 0.60981673424793092, 0.24856483236774179, 0.14614289651351639
1487321567.3524864, 0.19635329273436919, 0.016234068778503537, 0.83966087736848716, -0.73845334211115821, 0.60788762595840806, 0.2531256297255996, 0.14521264169324133
1487321567.3857589, 0.20077530684059036, 0.021873472367209046, 0.8422358862721846, -0.73930036191753057, 0.60758179396300127, 0.25396427269245569, 0.14064667329553635
1487321567.4190633, 0.19674064661752338, 0.029450260044783572, 0.84227267313215637, -0.74096606366826112, 0.607217511234041, 0.25097892838894587, 0.1388011673129449
1487321567.4523184, 0.19315101626122516, 0.036261410207558992, 0.84512784671036845, -0.74364516115600721, 0.60576346910470413, 0.24749403182280932, 0.13707369550566806
1487321567.4857953, 0.19144426368638753, 0.023218211424378896, 0.83876184357373484, -0.74242307733786017, 0.60347268932004661, 0.25299854043500453, 0.14359814072184041
1487321567.5191715, 0.18524025595792049, 0.034152853431458408, 0.8430451015517566, -0.74451869729629905, 0.60376732715349835, 0.24805440943158058, 0.14009259080940786
1487321567.5524831, 0.20041322592304825, 0.037468496066981459, 0.84308881803213465, -0.74424312497967293, 0.60304379308251299, 0.25436010624041644, 0.13319643725907393
1487321567.5861635, 0.1866214267074166, 0.032884229997798387, 0.8423817030393429, -0.74592074568025546, 0.60064725517254192, 0.25155198945958873, 0.13980955838720707
1487321567.6194084, 0.17484368646348947, 0.036473279681795756, 0.84198168681037855, -0.74769656897349046, 0.59984318597609276, 0.24666027603236521, 0.14246649153733781
1487321567.6526053, 0.16845150162185521, 0.043282877682186915, 0.8423834025268867, -0.74998428610950663, 0.59872312707400854, 0.243042800994481, 0.14136613661089906
1487321567.6861591, 0.18466767890114485, 0.02430108647787585, 0.83790299472307528, -0.74789806493134281, 0.59443547186078982, 0.25811403155607893, 0.14377795720993006
1487321567.7193673, 0.16666682532536475, 0.021847996258783586, 0.8354418624860015, -0.75084311035156481, 0.59139943971513875, 0.25209798690736834, 0.15141971912356814
1487321567.7528083, 0.17221195922318816, 0.034227986758424755, 0.8390886270367468, -0.75318563366463187, 0.59077830997291303, 0.25123145481697157, 0.14344039116407731
1487321567.7864258, 0.17407673329713144, 0.029112097352200772, 0.8357471416543002, -0.75322299575279206, 0.58883017184843922, 0.25510189280489931, 0.14442012213498703
1487321567.8197727, 0.16681604510980214, 0.034659769974674737, 0.83708560225918205, -0.75688779772176296, 0.58630138455174752, 0.24995728226016298, 0.14454378290925107
1487321567.8532989, 0.17357707262668051, 0.032339912554481376, 0.83774107074616522, -0.75808416550417013, 0.58389052364757199, 0.25376261179583515, 0.14136757499853561
1487321567.8865824, 0.17673844774229014, 0.023716902032328624, 0.83744984631931341, -0.75952844738911085, 0.58029912502830305, 0.25724652074697296, 0.14210450612717954
1487321567.9198842, 0.17213811073675125, 0.029782682090949614, 0.83974088458842677, -0.76312841704704271, 0.57865238622810411, 0.25191119648873062, 0.13905820397017885